Hourly Data Report for October 04, 2015

All times are specified in Local Standard Time (LST). Add 1 hour to adjust for Daylight Saving Time where and when it is observed.

RESOLUTE BAY A
NUNAVUT

74°43'01.000" N
94°58'10.000" W
67.70 m
2403498
71924
YRB

Download Data

Hourly Data (October 2015)
Hourly Data Report for October 4, 2015
Temp Definition
°C
Dew Point Temp Definition
°C
Rel Hum Definition
%
Wind Dir Definition
10's deg

Wind Spd Definition
km/h
Visibility Definition
km
Stn Press Definition
kPa
Hmdx Definition


Wind Chill Definition


Weather Definition


TIME
00:00 Legend Double Dagger -2.8 -4.1 91 23 38 8.1 100.40   -11 Snow,Blowing Snow
01:00 Legend Double Dagger -3.0 -4.0 93 23 33 4.0 100.39   -11 Snow Showers,Blowing Snow
02:00 Legend Double Dagger -3.0 -4.3 91 23 38 8.1 100.38   -11 Snow,Blowing Snow
03:00 Legend Double Dagger -2.8 -4.1 91 24 31 8.1 100.39   -10 Snow
04:00 Legend Double Dagger -3.0 -4.4 90 23 29 16.1 100.40   -10 LegendNANA
05:00 Legend Double Dagger -3.0 -4.4 90 22 33 16.1 100.39   -11 Snow
06:00 Legend Double Dagger -3.0 -4.4 90 22 33 16.1 100.38   -11 Cloudy
07:00 Legend Double Dagger -3.0 -4.3 91 22 33 16.1 100.37   -11 LegendNANA
08:00 Legend Double Dagger -3.4 -4.5 92 22 27 16.1 100.34   -11 LegendNANA
09:00 Legend Double Dagger -3.6 -4.6 93 23 34 16.1 100.32   -12 Cloudy
10:00 Legend Double Dagger -3.0 -4.0 93 23 24 11.3 100.31   -10 LegendNANA
11:00 Legend Double Dagger -2.8 -4.1 91 23 26 12.9 100.32   -10 Snow
12:00 Legend Double Dagger -2.6 -3.9 91 24 26 16.1 100.31   -9 Cloudy
13:00 Legend Double Dagger -2.5 -3.9 90 23 25 16.1 100.32   -9 LegendNANA
14:00 Legend Double Dagger -2.6 -3.7 92 24 23 12.9 100.31   -9 LegendNANA
15:00 Legend Double Dagger -2.7 -3.8 92 23 19 12.9 100.30   -8 Cloudy
16:00 Legend Double Dagger -2.8 -3.8 93 22 19 16.1 100.29   -9 LegendNANA
17:00 Legend Double Dagger -3.2 -4.3 92 23 14 16.1 100.26   -8 LegendNANA
18:00 Legend Double Dagger -3.3 -4.6 91 18 11 16.1 100.23   -8 Cloudy
19:00 Legend Double Dagger -4.1 -5.7 89 19 20 16.1 100.16   -10 LegendNANA
20:00 Legend Double Dagger -3.4 -5.0 89 20 25 16.1 100.12   -10 LegendNANA
21:00 Legend Double Dagger -3.1 -4.5 90 18 26 16.1 100.06   -10 Mostly Cloudy
22:00 Legend Double Dagger -3.5 -4.3 94 18 22 8.1 100.01   -10 Snow
23:00 Legend Double Dagger -2.4 -2.7 98 19 19 8.1 99.95   -8 Snow

Notes on Data Quality.

Legend

  • E = Estimated
  • M = Missing
  • NA = Not Available
  • ‡ = Partner data that is not subject to review by the National Climate Archives
Date modified: